Location: Gro� Glienicke
(52.4675°N, 13.1079°E)
Time: 18:43:14
(UTC+00:00)

Cosmos 1892 - Pass Details

Date: 06 July 2020
Orbit: 505 x 524 km, 82.5° (Epoch: 11 August)

Event Time Altitude Azimuth Distance (km) Brightness Sun altitude
Exits shadow 20:51:13 12° 146° (SE) 1,589 4.5 -8.9°
Maximum altitude 20:54:04 27° 90° (E) 1,000 3.9 -9.1°
Drops below altitude 10° 20:57:20 10° 31° (NNE) 1,746 5.8 -9.4°
Sets 20:59:41 0° 20° (NNE) 2,642 6.9 -9.6°
